Location: M�nchen
(48.1404°N, 11.6043°E)
Time: 12:38:46
(UTC+01:00)

ISS - Pass Details

Date: 11 January 2018
Orbit: 402 x 407 km, 51.6° (Epoch: 18 January)

Event Time Altitude Azimuth Distance (km) Brightness Sun altitude
Exits shadow 05:41:18 48° 75° (ENE) 542 -2.9 -22.6°
Drops below altitude 10° 05:43:52 10° 100° (E) 1,466 0.1 -22.2°
Sets 05:45:58 0° 104° (ESE) 2,325 1.5 -21.9°
